Regional Weather Roundup
Issued by NWS Newport/Morehead, NC

Current Version | Previous Version | Text Only | Print | Product List | Glossary On
Versions: 1 2 3 4 5 6 7 8 9 10 11 12 13 14 15 16 17 18 19 20 21 22 23 24 25 26 27 28 29 30 31 32 33 34 35 36 37 38 39 40 41 42 43 44 45 46 47 48 49 50
000 ASUS42 KMHX 312110 RWRMHX WEATHER ROUNDUP FOR EASTERN NORTH CAROLINA NATIONAL WEATHER SERVICE NEWPORT/MOREHEAD CITY NC 400 PM EST SAT JAN 31 2015 NOTE: "FAIR" INDICATES FEW OR NO CLOUDS BELOW 12,000 FEET WITH NO SIGNIFICANT WEATHER AND/OR OBSTRUCTIONS TO VISIBILITY NCZ015>017-031-032-045>047-102-103-312200- NORTH COAST CITY SKY/WX TMP DP RH WIND PRES REMARKS EDENTON SUNNY 43 10 26 NW8 30.29S ELIZABETH CITY SUNNY 40 9 28 NW12 30.29S KITTY HAWK CLEAR 38 10 32 W7 30.27S MANTEO SUNNY 37 10 32 NW8 30.29S $$ NCZ045>047-081-094-103-104-312200- CENTRAL COAST CITY SKY/WX TMP DP RH WIND PRES REMARKS FRISCO SUNNY 39 14 36 NW9 30.30S SWANQUARTER NOT AVBL $$ NCZ095-097-098-100-101-312200- SOUTHERN COAST CITY SKY/WX TMP DP RH WIND PRES REMARKS BEAUFORT SUNNY 45 7 21 NW3 30.31S CEDAR ISLAND NOT AVBL JACKSONVILLE SUNNY 47 9 21 N8 30.31S PINEY ISLAND N/A N/A N/A N/A MISG 30.31S WILMINGTON SUNNY 50 9 19 NW6 30.32S $$ NCZ011>013-027>030-043-044-078>080-089-090>093-098-312200- COASTAL PLAIN CITY SKY/WX TMP DP RH WIND PRES REMARKS AHOSKIE SUNNY 42 7 23 CALM 30.28F CLINTON SUNNY 48 12 22 CALM 30.31F ELIZABETHTOWN SUNNY 50 6 17 W3 30.32S GOLDSBORO SUNNY 27 16 63 NW2 30.32R GREENVILLE SUNNY 45 9 23 NW5 30.30F HAVELOCK MOSUNNY 46 7 20 N7 30.32S KENANSVILLE SUNNY 46 6 19 W6 30.32F KINSTON SUNNY 46 9 21 W5 30.31F NEW BERN SUNNY 47 9 21 W6 30.32S RICHLANDS SUNNY 46 9 21 W5 30.32S ROCKY MOUNT SUNNY 46 9 22 W8 30.29F WASHINGTON SUNNY 43 8 23 NW7 30.30F WHITEVILLE SUNNY 50 4 15 CALM 30.32S $$ AMZ130-135-150-152-154-156-158-170-250-252-270-ANZ085-086-088-633-658-670-312200- MARINE OBSERVATIONS STATION/POSITION TIME TEMP WIND PRES WAVE SWELL AIR SEA DIR/SP/G HT/PER HT/PER (UTC) (F) (DEG/KT/KT) (MB) (FT/S) (FT/S) CHESAPEAKE LIGHT 2000 34 310/ 19/ 20 1025.8 64 E VA BEACH 2100 35 48 310/ 23/ 29 1023.0 9/ 8 DUCK 2100 37 40 330/ 10/ 12 1024.3 2 E DUCK 2100 41 N/A 5/ 8 2/11 10 NE DUCK 2100 43 N/A 6/ 6 2/11 OREGON INLET 2100 36 40 300/ 11/ 15 1025.3 13E OREGON INLT 2100 45 N/A 7/ 8 2/11 HATTERAS CG 2100 37 40 320/ 12/ 14 1026.3 DIAMOND BUOY 2100 39 70 320/ 17/ 21 1025.7 4/10 3/10 17 S OCRACOKE NOT AVBL CAPE LOOKOUT 2100 42 220/ 4/ 6 1026.5 BEAUFORT LAB 2100 45 45 CALM / 4 1025.3 27 SE WRIGHTSVLE NOT AVBL 5 SE WRIGHTSVLE 2000 43 52 170/ 6/ 8 1026.9 225 S CAPE HAT 1956 54 69 340/ 17/ 23 1025.2 10/10 5/10 41 SE CHARLESTON 2100 48 67 30/ 10/ 14 1027.8 5/ 7 3/ 7 $$

USA.gov is the U.S. government's official web portal to all federal, state and local government web resources and services.